BAW168 EGLL-ZSPD

Flight info

Callsign BAW168
Flight time N/A
Altitude 35000
Route DET L6 DVR UL9 KONAN UL607 MATUG DCT BOMBI DCT LEPSA DCT RTB DCT PINQI DCT PESAT DCT TEGRI DCT OSTAL DCT LUGEB DCT UDROS UM859 BIMVO/N0473F370 UM859 KARDE UN644 ROLIN N644 ADEKI DCT LEYLA N161 GASBI/K0885F370 N161 BAGED/K0878F390 N161 SARIN/K0869S1190 A368 FKG W188 LIKMI DCT DKO/K0880S1250 W64 LAXIB W560 TODAM B208 HFE R343 SASAN SAS92A
Aircraft B772/H-SDE1E3FGHIJ3J5J6M1M2P2RWXYZ/LB1D1

Departure

Time 2026-05-07 13:25
Airport London Heathrow Airport (EGLL)

Arrival

Time N/A
Airport Shanghai Pudong International Airport (ZSPD)
Time Latitude Longitude Altitude Speed Heading
2026-05-07 12:34 51.47050 -0.47730 94 ft 0 kts 90°
2026-05-07 13:13 51.47050 -0.47745 90 ft 4 kts 90°
2026-05-07 13:13 51.47050 -0.47788 91 ft 4 kts 90°
2026-05-07 13:14 51.47050 -0.47823 92 ft 4 kts 100°
2026-05-07 13:14 51.47060 -0.47859 91 ft 4 kts 143°
2026-05-07 13:14 51.47082 -0.47870 91 ft 4 kts 180°
2026-05-07 13:14 51.47104 -0.47870 90 ft 1 kts 180°
2026-05-07 13:15 51.47105 -0.47870 90 ft 0 kts 180°
2026-05-07 13:19 51.47104 -0.47870 90 ft 2 kts 180°
2026-05-07 13:20 51.47074 -0.47870 91 ft 8 kts 179°
2026-05-07 13:20 51.46971 -0.47868 90 ft 14 kts 179°
2026-05-07 13:20 51.46874 -0.47871 90 ft 14 kts 179°
2026-05-07 13:20 51.46804 -0.47869 90 ft 9 kts 179°
2026-05-07 13:21 51.46754 -0.47908 93 ft 9 kts 251°
2026-05-07 13:21 51.46743 -0.48006 90 ft 9 kts 266°
2026-05-07 13:21 51.46743 -0.48106 92 ft 9 kts 271°
2026-05-07 13:21 51.46743 -0.48205 90 ft 9 kts 269°
2026-05-07 13:22 51.46742 -0.48305 91 ft 9 kts 269°
2026-05-07 13:22 51.46742 -0.48437 90 ft 15 kts 270°
2026-05-07 13:22 51.46742 -0.48602 90 ft 15 kts 269°
2026-05-07 13:22 51.46702 -0.48736 95 ft 15 kts 195°
2026-05-07 13:23 51.46602 -0.48768 94 ft 15 kts 198°
2026-05-07 13:23 51.46505 -0.48753 95 ft 15 kts 147°
2026-05-07 13:23 51.46480 -0.48663 94 ft 4 kts 92°
2026-05-07 13:23 51.46479 -0.48613 92 ft 5 kts 90°
2026-05-07 13:24 51.46479 -0.48371 91 ft 47 kts 89°
2026-05-07 13:24 51.46483 -0.47485 93 ft 110 kts 90°
2026-05-07 13:24 51.46489 -0.45948 98 ft 163 kts 91°
2026-05-07 13:24 51.46483 -0.44086 563 ft 173 kts 92°
2026-05-07 13:25 51.46400 -0.42109 1163 ft 182 kts 97°
2026-05-07 13:25 51.45964 -0.40220 1763 ft 186 kts 133°
2026-05-07 13:25 51.44993 -0.38775 1998 ft 200 kts 133°
2026-05-07 13:25 51.44269 -0.36793 2194 ft 213 kts 106°
2026-05-07 13:26 51.43877 -0.34428 2336 ft 229 kts 106°
2026-05-07 13:26 51.43400 -0.31897 2554 ft 245 kts 109°
2026-05-07 13:26 51.42843 -0.29239 2928 ft 257 kts 108°
2026-05-07 13:26 51.42307 -0.26503 3536 ft 257 kts 105°
2026-05-07 13:27 51.41965 -0.23660 4040 ft 264 kts 100°
2026-05-07 13:27 51.41639 -0.20736 4647 ft 265 kts 101°
2026-05-07 13:27 51.41286 -0.17777 5100 ft 273 kts 103°
2026-05-07 13:27 51.40874 -0.14814 5748 ft 272 kts 103°
2026-05-07 13:28 51.40466 -0.11839 6115 ft 277 kts 103°
2026-05-07 13:28 51.40033 -0.08833 6807 ft 271 kts 104°
2026-05-07 13:28 51.39588 -0.05877 7245 ft 278 kts 107°
2026-05-07 13:28 51.39087 -0.02858 7638 ft 282 kts 105°
2026-05-07 13:29 51.38633 0.00195 8230 ft 284 kts 105°
2026-05-07 13:29 51.38193 0.03311 8699 ft 287 kts 103°
2026-05-07 13:29 51.37785 0.06395 9326 ft 287 kts 103°
2026-05-07 13:29 51.37348 0.09527 9896 ft 290 kts 105°
2026-05-07 13:30 51.36836 0.12665 10390 ft 293 kts 105°
2026-05-07 13:30 51.36325 0.15946 10446 ft 312 kts 104°
2026-05-07 13:30 51.35843 0.19415 10672 ft 330 kts 102°
2026-05-07 13:30 51.35396 0.23137 10843 ft 349 kts 102°
2026-05-07 13:31 51.34930 0.27007 11314 ft 360 kts 102°
2026-05-07 13:31 51.34426 0.30982 11924 ft 366 kts 102°
2026-05-07 13:31 51.33893 0.34988 12720 ft 369 kts 103°
2026-05-07 13:31 51.33340 0.39011 13535 ft 372 kts 103°
2026-05-07 13:32 51.32767 0.43085 14100 ft 378 kts 104°
2026-05-07 13:32 51.32190 0.47157 14749 ft 383 kts 104°
2026-05-07 13:32 51.31594 0.51344 15405 ft 388 kts 104°
2026-05-07 13:32 51.30990 0.55580 16110 ft 393 kts 104°
2026-05-07 13:33 51.30369 0.59865 16818 ft 398 kts 105°
2026-05-07 13:33 51.29632 0.64151 17509 ft 402 kts 107°
2026-05-07 13:33 51.28842 0.68468 18197 ft 407 kts 108°
2026-05-07 13:33 51.28035 0.72818 18815 ft 412 kts 108°
2026-05-07 13:34 51.27217 0.77227 19475 ft 416 kts 108°
2026-05-07 13:34 51.25565 0.86159 20774 ft 423 kts 108°
2026-05-07 13:34 51.24730 0.90688 21413 ft 428 kts 108°
2026-05-07 13:35 51.23885 0.95266 22052 ft 432 kts 108°
2026-05-07 13:35 51.23032 0.99881 22667 ft 436 kts 108°
2026-05-07 13:35 51.22169 1.04537 23293 ft 439 kts 108°
2026-05-07 13:35 51.21297 1.09230 23806 ft 443 kts 108°
2026-05-07 13:36 51.20415 1.13964 24283 ft 447 kts 108°
2026-05-07 13:36 51.19537 1.18665 24758 ft 450 kts 108°
2026-05-07 13:36 51.18641 1.23455 25220 ft 452 kts 108°
2026-05-07 13:36 51.17738 1.28269 25677 ft 455 kts 108°
2026-05-07 13:37 51.16840 1.33137 26103 ft 459 kts 105°
2026-05-07 13:37 51.16171 1.38131 26513 ft 463 kts 99°
2026-05-07 13:37 51.15851 1.43248 26905 ft 466 kts 95°
2026-05-07 13:37 51.15639 1.48412 27301 ft 469 kts 95°
2026-05-07 13:38 51.15419 1.53608 27690 ft 471 kts 95°
2026-05-07 13:38 51.15183 1.58824 28076 ft 474 kts 95°
2026-05-07 13:38 51.14934 1.64071 28435 ft 476 kts 95°
2026-05-07 13:38 51.14673 1.69349 28783 ft 479 kts 95°
2026-05-07 13:39 51.14407 1.74642 29133 ft 481 kts 95°
2026-05-07 13:39 51.14137 1.79955 29492 ft 483 kts 95°
2026-05-07 13:39 51.13863 1.85288 29812 ft 485 kts 95°
2026-05-07 13:39 51.13587 1.90665 30088 ft 487 kts 96°
2026-05-07 13:40 51.13307 1.96055 30320 ft 489 kts 96°
2026-05-07 13:40 51.13024 2.01462 30538 ft 491 kts 96°
2026-05-07 13:40 51.12736 2.06892 30766 ft 493 kts 96°
2026-05-07 13:40 51.12449 2.12269 30983 ft 494 kts 96°
2026-05-07 13:41 51.12156 2.17719 31222 ft 494 kts 96°
2026-05-07 13:41 51.11861 2.23164 31507 ft 494 kts 96°
2026-05-07 13:41 51.11564 2.28600 31826 ft 492 kts 96°
2026-05-07 13:41 51.11266 2.34019 32119 ft 492 kts 96°
2026-05-07 13:42 51.10965 2.39441 32396 ft 491 kts 96°
2026-05-07 13:42 51.10662 2.44850 32688 ft 490 kts 96°
2026-05-07 13:42 51.10358 2.50246 32961 ft 490 kts 96°
2026-05-07 13:42 51.10051 2.55644 33236 ft 489 kts 96°
2026-05-07 13:43 51.09740 2.61032 33512 ft 489 kts 97°
2026-05-07 13:43 51.09271 2.66386 33765 ft 487 kts 102°
2026-05-07 13:43 51.08454 2.71610 34034 ft 486 kts 108°
2026-05-07 13:43 51.07486 2.76766 34258 ft 486 kts 108°
2026-05-07 13:44 51.06516 2.81913 34454 ft 486 kts 108°
2026-05-07 13:44 51.05566 2.86994 34645 ft 486 kts 108°
2026-05-07 13:44 51.04610 2.92152 34825 ft 487 kts 107°
2026-05-07 13:44 51.03658 2.97329 34982 ft 488 kts 107°
2026-05-07 13:45 51.02705 3.02525 35023 ft 490 kts 107°
2026-05-07 13:45 51.00802 3.12882 35061 ft 487 kts 107°
2026-05-07 13:46 50.98900 3.23175 35072 ft 485 kts 108°
2026-05-07 13:46 50.96989 3.33447 35061 ft 485 kts 108°
2026-05-07 13:47 50.95066 3.43720 35074 ft 486 kts 108°
2026-05-07 13:47 50.93136 3.53987 35072 ft 486 kts 108°
2026-05-07 13:48 50.91192 3.64266 35071 ft 487 kts 108°
2026-05-07 13:48 50.89218 3.74530 35077 ft 487 kts 108°
2026-05-07 13:49 50.87220 3.84801 35063 ft 488 kts 108°
2026-05-07 13:49 50.85230 3.94999 35067 ft 488 kts 108°
2026-05-07 13:50 50.83223 4.05246 35062 ft 488 kts 108°
2026-05-07 13:50 50.81206 4.15492 35082 ft 487 kts 108°
2026-05-07 13:51 50.79182 4.25715 35074 ft 487 kts 109°
2026-05-07 13:51 50.77146 4.35947 35079 ft 488 kts 109°
2026-05-07 13:52 50.75448 4.44441 35060 ft 488 kts 109°
2026-05-07 13:52 50.73394 4.54673 35077 ft 488 kts 109°
2026-05-07 13:53 50.71347 4.64903 35059 ft 489 kts 108°
2026-05-07 13:53 50.69365 4.75160 35065 ft 489 kts 108°
2026-05-07 13:54 50.67377 4.85407 35066 ft 489 kts 108°
2026-05-07 13:54 50.65355 4.95638 35068 ft 489 kts 109°
2026-05-07 13:55 50.63280 5.05764 35068 ft 488 kts 109°
2026-05-07 13:55 50.61176 5.15942 35065 ft 488 kts 109°
2026-05-07 13:56 50.59072 5.26116 35069 ft 488 kts 109°
2026-05-07 13:56 50.56962 5.36291 35067 ft 488 kts 109°
2026-05-07 13:57 50.54847 5.46444 35062 ft 489 kts 109°
2026-05-07 13:57 50.52721 5.56598 35063 ft 489 kts 109°
2026-05-07 13:58 50.50844 5.66788 35045 ft 489 kts 101°
2026-05-07 13:58 50.49579 5.77294 35044 ft 490 kts 102°
2026-05-07 13:59 50.48223 5.87783 35047 ft 490 kts 102°
2026-05-07 13:59 50.46843 5.98271 35037 ft 490 kts 102°
2026-05-07 14:00 50.45461 6.08756 35038 ft 490 kts 102°
2026-05-07 14:00 50.44074 6.19232 35033 ft 490 kts 102°
2026-05-07 14:01 50.42680 6.29701 35041 ft 490 kts 102°
2026-05-07 14:01 50.41274 6.40152 35029 ft 490 kts 102°
2026-05-07 14:02 50.39838 6.50587 35028 ft 489 kts 102°
2026-05-07 14:02 50.38390 6.61004 35027 ft 489 kts 102°
2026-05-07 14:03 50.36948 6.71328 35028 ft 488 kts 102°
2026-05-07 14:03 50.35489 6.81720 35037 ft 488 kts 102°
2026-05-07 14:04 50.34022 6.92102 35044 ft 488 kts 102°
2026-05-07 14:04 50.32546 7.02478 35045 ft 488 kts 102°
2026-05-07 14:05 50.31059 7.12851 35052 ft 489 kts 103°
2026-05-07 14:05 50.29563 7.23220 35049 ft 489 kts 103°
2026-05-07 14:06 50.28067 7.33519 35040 ft 489 kts 103°
2026-05-07 14:06 50.26551 7.43888 35044 ft 489 kts 103°
2026-05-07 14:07 50.25025 7.54253 35042 ft 489 kts 103°
2026-05-07 14:07 50.23492 7.64597 35044 ft 489 kts 103°
2026-05-07 14:08 50.21946 7.74957 35039 ft 489 kts 103°
2026-05-07 14:08 50.20394 7.85291 35042 ft 489 kts 103°
2026-05-07 14:09 50.18832 7.95629 35042 ft 489 kts 103°
2026-05-07 14:09 50.17272 8.05883 35040 ft 488 kts 103°
2026-05-07 14:10 50.15693 8.16196 35044 ft 488 kts 103°
2026-05-07 14:10 50.14107 8.26486 35045 ft 488 kts 103°
2026-05-07 14:11 50.12512 8.36771 35050 ft 488 kts 104°
2026-05-07 14:11 50.10905 8.47071 35041 ft 489 kts 104°
2026-05-07 14:12 50.09288 8.57364 35049 ft 489 kts 104°
2026-05-07 14:12 50.07663 8.67661 35049 ft 490 kts 104°
2026-05-07 14:13 50.06004 8.77948 35047 ft 490 kts 106°
2026-05-07 14:13 50.03529 8.87795 35048 ft 489 kts 115°
2026-05-07 14:14 50.00647 8.97379 35046 ft 489 kts 115°
2026-05-07 14:14 49.97790 9.06988 35045 ft 490 kts 115°
2026-05-07 14:15 49.94971 9.16545 35047 ft 490 kts 115°
2026-05-07 14:15 49.92130 9.26160 35047 ft 490 kts 115°
2026-05-07 14:16 49.89278 9.35763 35037 ft 490 kts 115°
2026-05-07 14:16 49.86420 9.45347 35041 ft 490 kts 115°
2026-05-07 14:17 49.83556 9.54917 35039 ft 489 kts 115°
2026-05-07 14:17 49.81090 9.64733 35034 ft 489 kts 107°
2026-05-07 14:18 49.79149 9.74831 35039 ft 490 kts 107°
2026-05-07 14:18 49.77201 9.84867 35027 ft 490 kts 107°
2026-05-07 14:19 49.75203 9.94955 35029 ft 491 kts 107°
2026-05-07 14:19 49.73180 10.05054 35034 ft 491 kts 108°
2026-05-07 14:20 49.71147 10.15144 35039 ft 492 kts 108°
2026-05-07 14:20 49.69102 10.25252 35037 ft 492 kts 108°
2026-05-07 14:21 49.67053 10.35332 35038 ft 492 kts 108°
2026-05-07 14:21 49.64992 10.45419 35031 ft 493 kts 108°
2026-05-07 14:22 49.62937 10.55426 35034 ft 493 kts 108°
2026-05-07 14:22 49.60854 10.65513 35034 ft 493 kts 108°
2026-05-07 14:23 49.58768 10.75571 35044 ft 493 kts 109°
2026-05-07 14:23 49.56673 10.85620 35044 ft 493 kts 109°
2026-05-07 14:24 49.54569 10.95662 35048 ft 493 kts 109°
2026-05-07 14:24 49.52451 11.05719 35049 ft 493 kts 109°
2026-05-07 14:25 49.50327 11.15763 35044 ft 493 kts 109°
2026-05-07 14:25 49.48175 11.25790 35029 ft 493 kts 111°
2026-05-07 14:26 49.45555 11.35485 35028 ft 492 kts 115°
2026-05-07 14:26 49.42842 11.45146 35029 ft 492 kts 115°
2026-05-07 14:27 49.40162 11.54726 35029 ft 492 kts 114°
2026-05-07 14:27 49.37471 11.64373 35026 ft 492 kts 115°
2026-05-07 14:28 49.34771 11.74033 35040 ft 493 kts 115°
2026-05-07 14:28 49.32057 11.83702 35011 ft 493 kts 115°
2026-05-07 14:29 49.29335 11.93357 35031 ft 492 kts 115°
2026-05-07 14:29 49.26616 12.02959 35022 ft 492 kts 115°
2026-05-07 14:30 49.23882 12.12575 35024 ft 492 kts 116°
2026-05-07 14:30 49.21160 12.22112 35029 ft 492 kts 116°
2026-05-07 14:31 49.18407 12.31719 35015 ft 493 kts 116°
2026-05-07 14:31 49.15643 12.41326 35021 ft 493 kts 116°
2026-05-07 14:32 49.12873 12.50915 35010 ft 494 kts 116°
2026-05-07 14:32 49.10092 12.60506 35019 ft 495 kts 116°
2026-05-07 14:33 49.07314 12.70042 35022 ft 495 kts 116°
2026-05-07 14:33 49.04507 12.79647 35016 ft 496 kts 116°
2026-05-07 14:34 49.01689 12.89248 35007 ft 496 kts 116°
2026-05-07 14:34 48.98864 12.98834 35010 ft 496 kts 116°
2026-05-07 14:35 48.96030 13.08417 35006 ft 496 kts 117°
2026-05-07 14:35 48.93190 13.17981 35010 ft 496 kts 117°
2026-05-07 14:36 48.90342 13.27533 35000 ft 496 kts 117°
2026-05-07 14:36 48.87489 13.37069 35010 ft 495 kts 117°
2026-05-07 14:37 48.84645 13.46533 35009 ft 495 kts 117°
2026-05-07 14:37 48.80347 13.60767 35001 ft 495 kts 117°
2026-05-07 14:38 48.77473 13.70241 34993 ft 494 kts 118°
2026-05-07 14:38 48.74595 13.79696 35001 ft 494 kts 118°
2026-05-07 14:39 48.71706 13.89150 34995 ft 494 kts 118°
2026-05-07 14:39 48.68808 13.98599 34991 ft 494 kts 118°
2026-05-07 14:40 48.65954 14.08052 34973 ft 493 kts 118°
2026-05-07 14:40 48.63607 14.15917 34983 ft 493 kts 118°
2026-05-07 14:41 48.60317 14.26892 34988 ft 493 kts 118°
2026-05-07 14:41 48.57929 14.34806 34981 ft 494 kts 118°
2026-05-07 14:42 48.55089 14.44174 34960 ft 494 kts 118°
2026-05-07 14:42 48.52220 14.53603 34980 ft 493 kts 118°
2026-05-07 14:43 48.49350 14.62993 34981 ft 493 kts 119°
2026-05-07 14:43 48.46473 14.72375 34962 ft 492 kts 119°
2026-05-07 14:44 48.43593 14.81733 34949 ft 491 kts 119°
2026-05-07 14:44 48.40733 14.90993 34966 ft 490 kts 120°
2026-05-07 14:45 48.37846 15.00302 34964 ft 490 kts 120°
2026-05-07 14:45 48.34953 15.09589 34974 ft 491 kts 120°
2026-05-07 14:46 48.32053 15.18874 34974 ft 491 kts 120°
2026-05-07 14:46 48.29140 15.28165 34956 ft 491 kts 120°
2026-05-07 14:47 48.26223 15.37431 34954 ft 491 kts 121°
2026-05-07 14:47 48.23311 15.46642 34960 ft 492 kts 121°
2026-05-07 14:48 48.20370 15.55920 34960 ft 493 kts 121°
2026-05-07 14:48 48.17424 15.65182 34967 ft 491 kts 121°
2026-05-07 14:49 48.14477 15.74411 34969 ft 490 kts 121°
2026-05-07 14:49 48.11531 15.83599 34974 ft 489 kts 121°
2026-05-07 14:50 48.08579 15.92771 34969 ft 489 kts 121°
2026-05-07 14:50 48.05630 16.01907 34960 ft 486 kts 122°
2026-05-07 14:51 48.02699 16.10987 34964 ft 485 kts 121°
2026-05-07 14:51 47.99759 16.20051 34957 ft 484 kts 122°
2026-05-07 14:52 47.96810 16.29083 34961 ft 483 kts 122°
2026-05-07 14:52 47.93882 16.38011 34963 ft 481 kts 122°
2026-05-07 14:53 47.90938 16.46967 34964 ft 480 kts 122°
2026-05-07 14:53 47.87992 16.55895 34970 ft 480 kts 122°
2026-05-07 14:54 47.85159 16.64449 34959 ft 481 kts 122°
2026-05-07 14:54 47.82191 16.73384 34966 ft 482 kts 122°
2026-05-07 14:55 47.79216 16.82313 34957 ft 476 kts 122°
2026-05-07 14:55 47.77786 16.86609 34952 ft 465 kts 123°
2026-05-07 14:55 47.76349 16.90904 34962 ft 465 kts 123°
2026-05-07 14:56 47.73458 16.99497 34962 ft 463 kts 123°
2026-05-07 14:56 47.70591 17.08033 34940 ft 460 kts 123°
2026-05-07 14:57 47.67770 17.16527 34963 ft 459 kts 123°
2026-05-07 14:57 47.64946 17.25023 34974 ft 460 kts 123°
2026-05-07 14:58 47.62101 17.33540 34978 ft 462 kts 123°
2026-05-07 14:58 47.59235 17.42081 34937 ft 464 kts 123°
2026-05-07 14:59 47.56350 17.50643 34972 ft 465 kts 123°
2026-05-07 14:59 47.53433 17.59223 34994 ft 467 kts 123°
2026-05-07 15:00 47.50532 17.67768 34990 ft 468 kts 123°
2026-05-07 15:00 47.47609 17.76374 34993 ft 468 kts 123°
2026-05-07 15:01 47.44689 17.84945 34985 ft 465 kts 123°
2026-05-07 15:01 47.41778 17.93455 34987 ft 463 kts 123°
2026-05-07 15:02 47.38871 18.01918 34992 ft 461 kts 123°
2026-05-07 15:02 47.35964 18.10352 34992 ft 461 kts 123°
2026-05-07 15:03 47.33054 18.18770 34988 ft 461 kts 123°
2026-05-07 15:03 47.30133 18.27191 34991 ft 461 kts 124°
2026-05-07 15:04 47.27205 18.35607 34999 ft 462 kts 124°
2026-05-07 15:04 47.24263 18.44033 34996 ft 463 kts 124°
2026-05-07 15:05 47.21310 18.52470 34999 ft 464 kts 124°
2026-05-07 15:05 47.18364 18.60855 34980 ft 466 kts 124°
2026-05-07 15:06 47.15387 18.69306 35002 ft 466 kts 124°
2026-05-07 15:06 47.12401 18.77754 34993 ft 466 kts 124°
2026-05-07 15:07 47.09403 18.86208 34973 ft 466 kts 124°
2026-05-07 15:07 47.06402 18.94643 34991 ft 466 kts 124°
2026-05-07 15:08 47.03417 19.03006 34991 ft 466 kts 124°
2026-05-07 15:08 47.00402 19.11425 35010 ft 467 kts 124°
2026-05-07 15:09 46.97369 19.19869 34979 ft 468 kts 123°
2026-05-07 15:09 46.94335 19.28291 35004 ft 468 kts 123°
2026-05-07 15:10 46.91295 19.36701 35012 ft 468 kts 124°
2026-05-07 15:10 46.88244 19.45117 35009 ft 468 kts 124°
2026-05-07 15:11 46.85181 19.53534 34979 ft 470 kts 123°
2026-05-07 15:11 46.82105 19.61965 35005 ft 469 kts 123°
2026-05-07 15:12 46.79042 19.70336 35020 ft 467 kts 123°
2026-05-07 15:12 46.75979 19.78678 35020 ft 466 kts 124°
2026-05-07 15:13 46.72937 19.86936 35018 ft 465 kts 124°
2026-05-07 15:13 46.69873 19.95230 35013 ft 464 kts 123°